FLOCK 4H 3

导读

FLOCK 4H 3是由美国发射的一颗光学遥感小卫星,隶属于Planet Labs公司FLOCK系列卫星星座,于2025年11月28日发射入轨。该卫星延续了FLOCK星座高分辨率对地观测的设计,将为农业监测、城市规划、灾害响应和环境变化研究提供持续的遥感数据支撑,进一步补充了Planet星座全球 daily 成像覆盖能力,助力商业航天领域对地观测服务。

基本信息
目录编号:
66706
目录名称:
FLOCK 4H 3
国际标识:
2025-276AS
轨道中心:
EARTH
卫星名称:
FLOCK 4H 3
卫星全名:
FLOCK 4H 3
卫星状态:
在轨 (已飞行299 天)
发射日期:
2025-11-28 UTC
国别 :
美国 (US)
星等 :
--
该卫星已列入 空间交会检测服务 Space Conjunction Data Service (SCDS) ,当前飞行风险评估等级: 无高风险
轨道信息
数据来源 国际轨道数据
星历时间: 2026-09-23T01:33:31+0800
12小时前
查看轨道信息
半长轴: 6881.057km
偏心率: 0.0004491
轨道倾角: 97.417°
近地点辐角 40.552°
升交点赤经 337.869°
平近点角 319.605°
近地点: 499.829km
远地点: 506.011km
周期: 94.677分钟
每日圈数: 15.209679
详细信息
使用方式:
暂无
2D轨道图
3D轨道图
轨道高度分析图
轨道倾角分析图
轨道综合分析图
查看轨道综合分析图
交会数据列表
事件ID 空间交会对象 最接近时刻(TCA) 交会距离 交会风险概率(CRP) 交会风险指数(CRI) 操作
CDM_260924-145004-126706-670621
2026-09-24T
14:50:49+0000
0.867 km
远距离
4.301737E-5 中风险 0.68
CDM_260924-194206-670606-676922
SPEQTRE (66769)
2026-09-24T
19:42:12+0000
2.702 km
极远距离
2.47555E-7 极低风险 0.23
与全量物体交会距离演化趋势 订阅飞行安全评估服务
与全量物体交会风险概率演化趋势 订阅飞行安全评估服务